Temp
10 6 7 9 9 10 10 12 12 11 8 9 9 8 9 10 11 10 10 10 11 12 12 12 12 12 12 12 12 12 11 11 11 11 11 11 11 11 10 11 11 11 10 10
8 7 8 8 9 9 10 12 11 9 8 9 8 9 8 10 10 9 9 10 11 11 11 11 11 12 12 12 12 11 11 11 11 11 11 11 11 11 11 10 10 10 10 10
8 8 8 10 8 10 7 10 9 10 7 7 6 11 11 10 10 9 10 10 11 11 11 11 11 12 12 12 11 11 11 11 11 11 11 11 11 11 10 10 10 9 10 9
7 8 9 9 8 8 12 8 8 8 8 10 6 13 10 10 10 9 9 10 11 11 11 11 11 11 11 11 11 11 11 11 11 11 11 10 10 10 10 10 10 10 9 9
8 8 9 8 8 8 9 7 7 6 6 6 7 7 10 8 9 9 9 10 11 11 11 11 11 11 11 10 10 10 10 10 10 10 10 10 10 10 10 9 9 9 9 8
7 8 7 8 6 6 5 6 5 3 5 7 6 6 9 8 9 9 8 10 10 10 11 11 10 10 10 10 10 10 10 10 10 10 10 10 10 9 9 9 9 9 9 8
7 7 7 8 7 7 7 5 7 8 7 10 4 5 9 9 8 9 8 10 10 10 10 10 10 10 10 10 10 10 10 10 10 10 10 9 9 9 8 8 8 8 8 8
7 7 7 7 8 8 6 7 7 10 9 8 4 8 10 7 8 9 10 11 10 10 10 10 10 10 10 10 10 10 10 10 10 9 9 8 8 8 8 7 7 7 7 7
9 8 7 6 7 7 6 6 5 4 3 5 6 7 8 6 8 8 8 9 9 10 9 9 9 9 9 9 9 10 10 9 9 9 8 8 8 7 7 7 7 7 7 7
7 8 6 6 7 6 7 5 7 4 10 9 7 7 8 6 7 7 7 8 9 9 9 9 9 9 9 9 9 9 9 9 9 8 8 8 7 7 7 7 7 7 7 6
6 7 6 6 6 5 5 5 4 5 5 8 8 8 5 5 6 7 7 10 10 10 9 9 9 9 8 8 9 9 9 9 8 8 7 7 7 6 6 6 6 6 6 6
5 4 4 7 5 5 5 5 5 6 7 3 4 6 7 5 5 7 9 10 10 10 9 9 9 8 8 8 9 9 8 8 8 7 7 6 6 6 6 6 6 6 6 6
6 5 3 7 5 5 5 4 4 3 3 3 7 9 6 6 7 8 9 10 10 9 9 8 8 8 8 8 8 8 8 8 7 6 6 5 5 5 5 5 5 5 5 5
7 3 6 6 8 5 5 4 3 5 3 5 5 7 8 8 8 8 10 10 9 8 8 8 8 8 8 8 8 8 7 7 7 6 5 5 5 5 5 5 4 5 5 5
4 5 2 3 4 5 6 6 3 3 6 8 9 6 10 8 7 9 10 10 9 8 8 8 8 7 8 7 7 7 7 6 6 5 5 4 4 4 4 4 4 5 5 5
2 5 3 4 5 3 4 4 4 5 5 4 6 6 9 9 8 8 9 7 8 8 8 8 7 7 7 7 6 6 6 5 5 5 4 4 4 4 4 4 4 5 5 5
3 3 4 6 4 5 7 6 5 4 4 6 6 8 7 6 7 8 8 8 8 7 7 7 7 7 6 6 6 5 5 5 4 4 4 4 4 4 4 4 4 4 4 5
2 3 3 4 5 6 9 7 5 5 6 4 5 5 4 5 6 7 7 8 8 7 8 7 7 6 6 5 5 5 4 4 4 3 3 3 3 3 3 3 3 4 4 4
3 3 5 5 3 5 10 6 7 7 6 4 5 4 5 6 7 7 7 7 7 7 7 6 6 5 5 5 5 4 3 3 2 2 2 2 2 3 3 3 3 3 3 3
1 2 5 3 4 5 8 7 7 7 6 4 4 4 4 5 4 4 6 6 7 6 6 6 5 5 5 4 4 3 2 2 2 1 1 2 2 2 2 2 2 2 2 2
2 2 3 5 4 3 4 5 7 7 5 4 4 4 4 3 4 5 5 6 6 6 6 4 4 3 3 3 2 2 1 1 1 1 1 1 1 1 1 1 1 1 1 1
2 2 2 3 3 3 5 5 5 4 4 4 4 3 3 3 4 4 4 4 5 4 3 3 3 3 3 2 1 1 1 1 0 0 0 1 1 1 1 1 1 1 1 1
4 4 4 4 4 4 3 4 3 2 1 1 2 3 4 3 4 4 3 3 3 2 2 2 2 1 1 1 0 0 0 0 -0 0 0 1 1 1 1 1 0 0 0 0
4 4 5 5 4 3 2 2 1 2 2 2 2 2 3 2 3 2 1 1 1 1 1 1 0 -0 0 0 0 0 0 -0 -0 -0 -0 0 0 0 0 -0 -0 -1 -0 -0
3 3 3 2 3 3 2 1 1 2 2 1 1 1 1 1 1 1 1 1 1 0 0 0 -0 -0 -0 -0 -0 0 0 -1 -1 -1 -1 -1 -1 -1 -1 -1 -1 -1 -1 -1
3 2 3 3 0 1 1 1 0 0 -0 -0 -0 0 0 -0 -0 -0 -0 0 0 0 0 -0 -1 -1 -1 -1 -1 -0 -1 -1 -1 -1 -1 -1 -1 -1 -1 -1 -1 -0 -1 -1
Height
1519 1532 1545 1543 1541 1540 1542 1544 1546 1547 1550 1547 1543 1540 1533 1528 1528 1527 1526 1525 1525 1528 1529 1531 1533 1535 1536 1537 1537 1537 1536 1534 1532 1530 1528 1527 1525 1524 1523 1521 1519 1517 1515 1513
1528 1542 1542 1543 1542 1542 1543 1545 1549 1549 1549 1548 1546 1534 1530 1527 1527 1527 1526 1526 1526 1527 1529 1531 1533 1534 1536 1536 1537 1535 1534 1532 1531 1529 1527 1525 1524 1523 1521 1520 1518 1515 1513 1512
1533 1542 1541 1542 1545 1544 1553 1550 1552 1553 1552 1551 1549 1533 1529 1527 1527 1527 1527 1527 1528 1528 1530 1532 1533 1534 1535 1535 1535 1534 1533 1532 1530 1528 1527 1525 1523 1522 1520 1519 1517 1514 1511 1509
1540 1541 1541 1544 1547 1548 1546 1553 1554 1555 1555 1555 1556 1542 1531 1528 1528 1527 1527 1527 1528 1528 1530 1531 1533 1534 1534 1534 1534 1533 1532 1531 1529 1527 1526 1524 1522 1520 1519 1517 1514 1512 1509 1507
1545 1543 1544 1547 1550 1548 1551 1554 1556 1558 1562 1563 1558 1562 1529 1531 1529 1527 1526 1526 1527 1528 1530 1532 1532 1533 1533 1534 1534 1533 1533 1531 1529 1527 1524 1522 1520 1518 1516 1514 1511 1508 1506 1503
1543 1544 1545 1548 1551 1550 1553 1556 1561 1566 1566 1568 1565 1567 1535 1529 1522 1523 1524 1525 1526 1528 1530 1531 1531 1533 1533 1533 1534 1533 1532 1530 1528 1525 1523 1520 1517 1515 1512 1510 1507 1504 1501 1499
1546 1548 1548 1548 1552 1553 1555 1560 1567 1564 1570 1557 1571 1569 1527 1519 1519 1519 1520 1523 1525 1528 1529 1530 1532 1532 1533 1533 1533 1532 1531 1529 1526 1524 1521 1518 1515 1512 1509 1506 1503 1500 1497 1495
1551 1558 1550 1551 1552 1552 1557 1557 1567 1563 1565 1562 1569 1550 1520 1517 1517 1517 1519 1522 1525 1527 1529 1530 1531 1532 1532 1533 1532 1531 1529 1527 1524 1521 1518 1515 1512 1509 1506 1503 1500 1497 1493 1490
1544 1550 1552 1553 1552 1553 1558 1562 1563 1576 1585 1574 1556 1537 1517 1517 1517 1517 1519 1522 1524 1526 1528 1529 1530 1531 1531 1532 1531 1529 1527 1524 1521 1518 1515 1512 1509 1506 1503 1500 1497 1493 1490 1487
1543 1552 1555 1554 1553 1556 1554 1560 1561 1572 1558 1558 1553 1548 1532 1524 1520 1520 1521 1522 1524 1526 1527 1528 1530 1530 1530 1530 1529 1526 1524 1521 1518 1515 1512 1509 1506 1503 1500 1497 1494 1491 1487 1484
1542 1545 1557 1555 1555 1555 1559 1560 1567 1568 1569 1558 1557 1539 1526 1524 1519 1518 1518 1520 1522 1524 1525 1526 1527 1528 1529 1528 1526 1524 1521 1518 1516 1513 1509 1506 1503 1500 1497 1495 1491 1488 1485 1481
1543 1551 1561 1550 1554 1553 1553 1557 1559 1561 1561 1576 1573 1546 1518 1517 1515 1514 1515 1518 1520 1521 1522 1524 1525 1526 1526 1525 1523 1521 1518 1515 1513 1510 1507 1504 1501 1498 1495 1493 1489 1486 1483 1480
1542 1550 1569 1553 1558 1555 1553 1554 1555 1560 1564 1569 1557 1529 1515 1513 1511 1511 1512 1514 1515 1517 1518 1520 1522 1522 1522 1521 1520 1518 1515 1513 1510 1507 1504 1502 1499 1496 1494 1491 1488 1485 1482 1479
1541 1551 1547 1552 1540 1546 1550 1549 1552 1551 1563 1552 1540 1522 1513 1510 1510 1509 1508 1509 1510 1512 1513 1515 1517 1517 1517 1517 1516 1514 1512 1509 1507 1504 1501 1498 1496 1494 1491 1489 1486 1483 1480 1477
1543 1548 1555 1549 1547 1545 1542 1541 1548 1550 1536 1533 1515 1525 1503 1509 1506 1505 1505 1505 1505 1505 1506 1509 1511 1513 1513 1513 1512 1510 1508 1505 1503 1500 1497 1495 1493 1491 1488 1486 1483 1480 1477 1474
1544 1546 1549 1544 1538 1542 1539 1535 1533 1534 1532 1533 1524 1520 1506 1504 1503 1502 1501 1501 1501 1502 1504 1507 1509 1510 1510 1510 1509 1507 1504 1502 1499 1496 1494 1492 1490 1487 1485 1482 1480 1477 1474 1470
1544 1546 1547 1540 1540 1538 1527 1512 1517 1519 1519 1517 1521 1507 1506 1505 1504 1503 1500 1498 1497 1500 1504 1506 1507 1508 1507 1506 1505 1502 1499 1497 1495 1492 1490 1488 1486 1484 1481 1479 1476 1473 1470 1466
1543 1545 1547 1547 1539 1541 1506 1506 1509 1512 1511 1514 1511 1511 1512 1509 1506 1504 1502 1499 1498 1499 1501 1503 1504 1504 1503 1502 1500 1498 1497 1495 1492 1490 1488 1485 1483 1480 1477 1475 1471 1468 1465 1462
1539 1543 1543 1543 1548 1524 1499 1509 1510 1508 1512 1513 1514 1513 1509 1505 1504 1504 1503 1503 1502 1503 1503 1503 1502 1500 1499 1497 1496 1494 1492 1490 1488 1486 1484 1481 1478 1475 1472 1469 1466 1462 1459 1456
1535 1537 1539 1549 1545 1530 1510 1509 1508 1508 1513 1514 1513 1513 1512 1509 1510 1508 1505 1504 1503 1501 1500 1499 1497 1495 1494 1493 1491 1489 1488 1485 1483 1481 1479 1476 1473 1469 1466 1463 1460 1457 1453 1450
1540 1540 1536 1534 1532 1525 1510 1509 1508 1513 1520 1517 1515 1515 1513 1513 1512 1507 1505 1502 1500 1498 1496 1494 1493 1492 1490 1487 1485 1483 1482 1480 1479 1476 1473 1470 1467 1463 1460 1457 1454 1450 1447 1443
1528 1535 1537 1537 1535 1530 1511 1510 1513 1519 1516 1515 1514 1512 1510 1508 1505 1502 1499 1496 1494 1492 1492 1488 1487 1486 1484 1481 1480 1479 1475 1475 1473 1470 1467 1464 1461 1458 1454 1450 1448 1444 1441 1437
1526 1516 1518 1519 1515 1510 1511 1514 1516 1516 1515 1513 1512 1508 1506 1502 1500 1497 1494 1491 1490 1489 1488 1485 1482 1481 1480 1477 1474 1471 1470 1468 1466 1463 1460 1458 1454 1450 1448 1444 1440 1437 1433 1428
1512 1511 1511 1512 1510 1510 1510 1513 1514 1514 1512 1509 1507 1504 1501 1498 1495 1493 1491 1490 1488 1485 1481 1481 1479 1476 1475 1473 1470 1467 1462 1459 1457 1455 1453 1449 1446 1443 1440 1436 1432 1428 1425 1420
1513 1512 1510 1509 1507 1509 1510 1512 1511 1510 1508 1506 1505 1502 1499 1495 1492 1490 1488 1485 1483 1481 1479 1477 1475 1471 1469 1467 1464 1461 1456 1453 1449 1445 1443 1440 1436 1433 1428 1425 1422 1417 1414 1410
1507 1507 1509 1507 1512 1511 1510 1510 1509 1507 1506 1504 1502 1499 1496 1492 1490 1485 1485 1483 1478 1476 1474 1472 1469 1466 1462 1459 1455 1452 1449 1445 1440 1436 1431 1428 1424 1420 1416 1412 1408 1407 1401 1399
Wind_Speed
6 8 4 1 1 3 6 4 1 0 2 4 3 7 9 16 3 5 7 5 6 8 6 10 10 6 3 2 1 6 10 12 13 13 10 8 8 8 10 12 12 13 14 15
6 4 2 0 4 6 5 3 2 3 2 1 5 14 4 2 2 2 5 7 9 13 12 11 8 5 4 1 4 9 10 11 11 11 10 9 9 9 10 11 13 15 15 16
7 4 1 3 4 5 4 4 1 2 5 2 7 5 1 1 3 4 5 8 11 12 11 9 7 6 3 2 7 7 8 9 9 9 10 11 12 13 14 14 15 16 18 17
7 1 3 4 4 2 2 0 2 2 4 3 5 5 4 1 2 2 4 8 9 9 9 8 7 4 1 2 4 5 6 8 9 11 12 13 15 17 17 18 18 18 18 18
1 2 4 5 1 1 3 2 3 2 3 2 4 2 5 2 4 6 7 9 9 9 9 7 5 5 5 5 4 5 7 10 12 13 14 15 16 18 20 21 22 22 20 20
4 2 3 3 2 3 6 3 4 3 2 2 2 3 5 4 5 4 6 11 10 9 8 9 10 9 7 4 4 6 9 11 13 14 15 17 18 20 21 21 21 21 20 19
4 3 2 2 3 2 3 4 3 5 4 4 1 0 10 4 4 4 12 14 12 11 11 11 10 8 4 3 6 9 11 14 16 16 17 17 18 20 21 22 23 22 21 19
4 4 2 4 1 3 2 3 4 5 2 4 1 6 5 4 4 6 9 13 13 13 12 11 8 5 2 4 8 12 15 18 19 20 19 19 19 19 19 20 21 22 22 21
4 1 1 3 2 2 2 1 2 6 2 2 3 7 6 5 3 1 10 13 13 14 12 10 7 4 0 5 10 14 17 19 20 20 20 18 18 18 19 19 20 21 21 20
2 4 2 1 2 6 1 4 4 3 1 4 5 5 5 4 5 4 6 12 12 13 12 10 8 4 3 6 10 15 17 19 21 21 21 20 19 18 19 19 20 19 20 19
3 2 2 1 3 5 2 1 4 2 2 3 3 6 5 5 5 8 13 15 13 14 13 13 11 7 5 8 12 14 17 19 20 20 19 18 17 17 17 17 18 18 18 19
1 4 3 1 1 2 2 4 4 4 3 1 2 7 4 6 8 11 15 14 13 14 13 14 13 8 6 9 11 14 17 18 18 18 17 16 15 15 16 17 18 18 19 18
4 1 2 4 3 2 4 4 3 4 3 6 4 5 0 3 1 8 13 14 15 16 16 16 14 9 7 8 11 14 17 17 18 18 16 14 14 15 16 17 17 18 18 18
4 2 5 6 4 4 3 5 6 5 3 4 7 9 6 5 5 8 13 17 17 20 19 17 15 10 6 7 10 13 15 17 17 16 15 15 15 16 17 17 17 17 18 18
3 2 2 5 6 3 5 5 8 10 9 8 5 9 16 5 7 12 23 22 21 26 24 20 15 10 5 7 11 14 17 18 18 17 16 15 16 17 17 17 17 17 18 18
0 3 4 4 2 7 6 11 14 15 9 10 15 20 14 22 14 16 18 17 23 25 25 18 12 7 5 10 14 17 18 18 18 18 17 16 17 17 17 16 16 17 17 17
4 4 2 4 3 6 7 8 10 5 5 7 9 9 7 5 10 12 15 14 17 20 20 15 11 8 9 13 16 18 19 20 20 18 17 17 17 17 17 17 18 19 20 21
5 4 2 3 4 2 5 0 6 7 3 9 8 7 13 15 14 13 11 12 8 11 14 13 10 10 11 14 17 19 19 19 18 17 17 17 18 18 19 21 22 21 21 21
1 3 1 2 3 7 4 3 2 1 3 5 2 6 8 11 5 11 15 13 9 10 11 11 11 12 14 17 20 20 19 18 17 17 19 19 20 21 22 22 22 21 21 21
5 3 3 3 3 5 1 1 4 1 1 5 8 10 12 14 3 3 20 19 17 13 13 16 17 17 17 19 20 20 18 19 20 20 22 23 23 23 23 22 22 22 23 24
3 2 8 7 5 7 5 5 5 1 0 6 11 13 15 4 10 21 23 22 20 19 19 18 17 18 18 18 18 19 18 21 21 24 23 23 22 23 24 25 26 27 27 28
7 7 4 3 4 7 10 4 3 1 9 8 16 22 21 21 23 24 24 23 20 17 17 16 17 18 16 14 17 19 21 21 21 21 22 24 25 26 28 30 30 31 31 32
3 5 4 8 5 6 10 8 4 10 13 16 19 22 23 22 21 22 22 20 16 13 15 16 17 17 14 13 15 18 20 21 23 25 27 28 29 29 30 32 33 34 33 33
3 4 3 0 2 8 11 7 9 12 14 16 16 18 16 17 18 18 17 17 19 19 18 15 14 15 17 17 19 20 22 24 26 28 28 28 30 31 32 33 34 33 34 35
2 1 2 4 2 2 4 8 10 9 9 10 12 14 16 17 18 20 22 21 20 18 16 16 18 19 20 22 23 24 25 26 28 29 31 31 30 31 33 34 35 35 36 35
3 1 3 4 2 1 4 11 10 13 14 15 18 20 19 19 21 21 24 23 20 20 19 19 22 25 28 30 32 33 33 32 32 33 35 36 37 38 39 40 41 40 40 39
Wind_Direction
34 71 92 130 10 91 107 96 83 33 351 324 289 278 278 308 308 343 11 59 147 172 163 166 167 169 174 192 310 329 331 334 337 338 339 341 343 339 332 330 329 332 332 331
34 89 190 201 72 83 60 103 356 280 1 327 347 294 293 292 79 58 85 100 123 133 134 139 146 154 162 191 319 325 329 333 339 348 350 349 348 345 337 332 330 327 327 325
106 157 175 124 46 80 41 101 74 243 327 53 316 297 341 165 112 102 108 119 123 125 132 136 145 149 157 297 317 325 330 335 340 345 343 339 336 334 333 331 329 327 322 320
84 357 116 82 75 49 133 169 107 29 28 281 4 282 292 248 211 154 147 143 143 143 143 144 146 150 227 347 19 18 9 359 353 347 342 339 336 331 330 327 324 322 319 317
264 64 85 69 16 359 143 98 93 91 87 33 6 47 269 341 232 213 194 164 152 148 145 147 155 144 120 95 62 25 2 352 346 341 337 332 328 324 322 320 316 314 312 313
100 77 62 119 63 64 145 89 53 60 77 28 317 120 278 198 206 172 190 182 167 159 154 147 139 130 116 86 31 1 351 349 347 344 338 331 326 323 322 321 321 322 319 312
26 5 4 92 86 30 78 56 341 349 11 225 226 328 249 245 231 197 188 183 173 166 157 148 143 138 116 44 11 6 360 353 348 343 337 332 329 328 327 327 327 328 326 323
133 331 30 354 44 161 69 137 153 225 246 280 292 238 253 220 229 244 205 184 173 166 160 158 153 145 92 36 15 3 356 350 345 342 339 337 332 329 328 325 324 326 325 324
120 69 353 48 31 58 164 102 146 101 37 21 256 286 294 257 293 185 181 182 180 174 174 172 170 170 46 354 350 350 349 346 344 343 342 339 334 331 330 329 328 328 327 325
166 92 351 357 89 41 100 147 68 11 206 275 290 281 247 326 247 221 203 199 192 185 188 192 195 219 291 328 342 345 343 343 342 341 337 335 335 334 333 333 331 330 329 326
130 94 291 40 199 182 97 63 52 112 130 195 304 271 211 235 244 213 217 211 205 198 204 206 211 231 282 322 333 336 340 341 341 338 338 337 338 341 343 343 343 342 340 336
11 129 173 119 115 152 161 173 160 131 207 128 143 271 220 253 270 222 225 223 219 210 212 211 217 237 277 314 329 339 342 342 340 340 340 340 342 345 347 347 348 345 344 344
183 30 38 340 9 360 219 197 143 101 88 199 168 257 242 290 231 212 226 224 217 212 212 212 218 237 271 309 332 341 341 342 340 337 337 336 336 337 339 342 345 346 348 350
125 130 177 194 201 131 202 200 190 158 153 192 225 274 254 249 253 233 233 235 226 216 214 215 220 232 259 311 334 339 337 335 333 329 328 328 328 328 330 331 331 332 336 339
103 216 145 276 246 242 242 214 189 204 211 199 279 229 270 245 245 252 282 262 234 218 216 217 219 226 267 326 334 334 332 328 325 324 322 320 319 321 323 322 323 325 329 332
324 208 165 277 182 196 249 223 220 224 234 262 267 280 292 298 288 287 293 276 250 231 223 219 220 235 304 330 333 330 324 321 320 315 315 316 317 320 321 324 328 332 333 334
161 145 118 272 350 325 292 240 197 184 190 194 214 244 330 314 322 317 316 303 266 245 222 221 229 259 302 323 324 322 323 320 313 313 315 315 315 318 321 325 327 327 327 327
143 129 134 281 337 245 252 158 170 198 219 219 286 319 327 309 302 312 332 327 280 229 221 222 242 275 297 316 320 314 306 302 300 302 306 308 309 312 316 319 321 319 318 319
76 124 293 263 236 305 308 31 36 124 45 16 18 348 357 356 344 45 22 358 320 277 249 246 271 282 297 312 307 301 301 300 298 300 301 304 307 310 311 313 314 314 314 314
115 99 170 147 234 244 272 352 1 203 235 14 52 24 8 8 28 295 341 339 331 300 264 267 278 281 289 301 294 289 293 294 298 300 301 304 308 308 309 310 311 312 312 313
124 175 215 221 249 279 248 299 349 171 353 6 27 8 351 338 305 313 322 319 310 295 271 272 283 292 301 300 289 289 291 296 303 299 298 302 306 306 306 307 308 310 311 310
171 160 197 176 224 268 352 45 42 321 2 353 336 338 328 322 315 314 311 308 299 287 276 277 289 300 304 301 296 296 297 306 305 303 301 304 305 305 304 304 305 305 305 305
259 202 184 187 211 90 58 71 78 352 335 323 316 316 309 309 317 322 321 318 309 304 307 309 309 304 305 306 302 299 303 302 300 300 300 300 299 297 297 296 297 297 299 300
253 188 220 107 99 123 118 23 355 325 309 309 302 301 306 310 317 318 320 317 313 308 309 309 311 312 309 305 300 301 303 304 305 304 302 301 300 302 301 299 298 298 300 302
220 158 233 250 352 50 134 15 346 345 341 338 330 330 324 317 313 311 309 311 312 312 315 314 315 315 313 313 311 310 309 309 309 309 308 306 304 302 300 299 299 300 300 301
212 257 241 285 72 294 316 332 352 353 349 340 335 331 328 324 315 312 308 308 307 308 308 315 320 317 312 310 309 307 310 317 318 315 313 312 310 309 307 305 304 301 300 301